This demonstration page uses our WeatherBlox Daily Observations layout. Learn more.

Left ArrowRight Arrow

Hourly Observations for August 10, 2015

Temp ( °F °C ) Dew Point ( °F °C ) Humidity (%) Winds ( mph kmh ) Pressure ( in mb ) Visibility ( mi km ) Precip ( " mm )
12:53 am 00:53 Cloudy with Mist and Fog 73 22.8 72 22.2 96 96 N N/A 29.95 1014 6 10 N/A
1:53 am 01:53 Mostly Cloudy with Mist and Fog 72 22.2 71 21.7 97 97 N N/A 29.93 1014 5 8 N/A
2:53 am 02:53 Cloudy with Mist and Fog 72 22.2 70 21.1 94 94 N N/A 29.92 1013 5 8 N/A
3:53 am 03:53 Cloudy with Mist and Fog 72 22.2 70 21.1 94 94 N N/A 29.90 1013 6 10 N/A
4:53 am 04:53 Cloudy 73 22.8 70 21.1 90 90 E 3 6 29.89 1012 9 14 N/A
5:53 am 05:53 Cloudy 74 23.3 70 21.1 88 88 N N/A 29.88 1012 10 16 N/A
6:53 am 06:53 Cloudy 73 22.8 71 21.7 94 94 N N/A 29.88 1012 8 13 0.05 1.27
7:53 am 07:53 Mostly Cloudy with Mist and Fog 74 23.3 72 22.2 94 94 N N/A 29.88 1012 5 8 N/A
8:53 am 08:53 Mostly Cloudy 76 24.4 71 21.7 85 85 N N/A 29.87 1012 10 16 N/A
9:53 am 09:53 Partly Cloudy 78 25.6 71 21.7 79 79 SSW 3 6 29.87 1012 10 16 N/A
10:53 am 10:53 Cloudy 79 26.1 72 22.2 79 79 N N/A 29.88 1012 10 16 N/A
11:06 am 11:06 Cloudy with Rain 78 25.6 72 22.2 82 82 W 3 6 29.88 1012 2 3 0.05 1.27
11:13 am 11:13 Cloudy with Light Rain 76 24.4 73 22.8 91 91 N N/A 29.91 1013 2 2 0.06 1.52
11:15 am 11:15 Cloudy with Light Rain 76 24.4 73 22.8 91 91 W 3 6 29.91 1013 3 4 0.06 1.52
11:34 am 11:34 Cloudy with Light Rain 77 25 73 22.8 88 88 WNW 3 6 29.91 1013 8 13 0.08 2.03
11:51 am 11:51 Mostly Cloudy with Thunderstorms 79 26 73 23 84 84 WNW 3 6 29.88 1012 8 13 0.08 2.03
11:53 am 11:53 Mostly Cloudy with Thunderstorms 80 26.7 74 23.3 82 82 VRB 3 6 29.88 1012 8 13 0.08 2.03
12:06 pm 12:06 Partly Cloudy 80 26.7 74 23.3 82 82 VRB 3 6 29.85 1011 9 14 N/A
12:35 pm 12:35 Mostly Cloudy 83 28.3 75 23.9 77 77 VRB 7 11 29.85 1011 10 16 N/A
12:53 pm 12:53 Mostly Cloudy 83 28.3 74 23.3 74 74 SW 7 11 29.85 1011 10 16 N/A
1:53 pm 13:53 Mostly Cloudy 84 28.9 74 23.3 72 72 WNW 7 11 29.84 1011 10 16 N/A
2:53 pm 14:53 Partly Cloudy 88 31.1 75 23.9 66 66 VRB 7 11 29.81 1010 10 16 N/A
3:53 pm 15:53 Partly Cloudy 86 30 74 23.3 67 67 W 9 15 29.79 1009 10 16 N/A
4:53 pm 16:53 Mostly Sunny 87 30.6 74 23.3 65 65 WNW 8 13 29.78 1009 10 16 N/A
5:30 pm 17:30 Partly Cloudy with Nearby Thunderstorms 87 30.6 74 23.3 65 65 W 7 11 29.77 1008 10 16 N/A
5:53 pm 17:53 Partly Cloudy with Nearby Thunderstorms 84 28.9 73 22.8 70 70 WNW 7 11 29.78 1008 10 16 N/A
6:09 pm 18:09 Mostly Cloudy with Nearby Thunderstorms 77 25 72 22.2 85 85 WNW 7 11 29.77 1008 3 4 0.05 1.27
6:13 pm 18:13 Mostly Cloudy with Nearby Thunderstorms 76 24.4 73 22.8 91 91 WNW 8 13 29.80 1009 2 2 0.09 2.29
6:19 pm 18:19 Cloudy with Nearby Thunderstorms 76 24.4 73 22.8 91 91 W 6 9 29.80 1009 2 3 0.10 2.54
6:27 pm 18:27 Cloudy with Nearby Thunderstorms 74 23.3 72 22.2 94 94 WSW 5 7 29.80 1009 4 6 0.11 2.79
6:53 pm 18:53 Partly Cloudy with Nearby Thunderstorms 72 22.2 69 20.6 91 91 N N/A 29.78 1009 10 16 0.11 2.79
7:00 pm 19:00 Partly Cloudy with Light Rain 72 22.2 70 21.1 94 94 N N/A 29.80 1009 8 13 N/A
7:53 pm 19:53 Sunny 75 23.9 72 22.2 90 90 W 3 6 29.80 1009 10 16 N/A
8:53 pm 20:53 Clear with Mist and Fog 73 22.8 72 22.2 96 96 N N/A 29.82 1010 5 8 N/A
9:53 pm 21:53 Mostly Clear 73 22.8 71 21.7 94 94 N N/A 29.83 1010 8 13 N/A
10:53 pm 22:53 Mostly Cloudy with Mist and Fog 72 22.2 71 21.7 97 97 SSW 3 6 29.84 1011 6 10 N/A
11:13 pm 23:13 Cloudy with Light Rain 72 22.2 71 21.7 97 97 N N/A 29.85 1011 6 10 0.02 0.51
11:26 pm 23:26 Cloudy with Mist and Fog 72 22.2 71 21.7 97 97 N N/A 29.85 1011 6 10 0.02 0.51
11:53 pm 23:53 Mostly Cloudy 72 22.2 71 21.7 97 97 N N/A 29.85 1011 7 11 0.02 0.51

Powered by AerisWeather